Location: Kolin
(50.0330°N, 15.2000°E)
Time: 07:40:29
(UTC+02:00)

Gurwin Techsat 1B - Pass Details

Date: 19 August 2022
Orbit: 811 x 814 km, 98.8° (Epoch: 25 September)

Event Time Altitude Azimuth Distance (km) Brightness Sun altitude
Rises 01:54:07 0° 33° (NNE) 3,349 12.9 -26.1°
Reaches altitude 10° 01:59:08 10° 75° (ENE) 2,408 11.4 -25.9°
Maximum altitude 01:59:55 10° 83° (E) 2,385 11.3 -25.9°
Drops below altitude 10° 02:00:43 10° 92° (E) 2,405 11.2 -25.9°
Enters shadow 02:03:10 - 116° (ESE) 2,717 11.2 -25.8°
